Regional Weather Roundup
Issued by NWS Midland/Odessa, TX

Current Version | Previous Version | Text Only | Print | Product List | Glossary On
Versions: 1 2 3 4 5 6 7 8 9 10 11 12 13 14 15 16 17 18 19 20 21 22 23 24 25 26 27 28 29 30 31 32 33 34 35 36 37 38 39 40 41 42 43 44 45 46 47 48 49 50
000
ASUS44 KMAF 171101
RWRMAF
MIDLAND AREA WEATHER ROUNDUP
NATIONAL WEATHER SERVICE MIDLAND TX
500 AM CST WED JAN 17 2018

...IN SOUTHWEST TEXAS AND SOUTHEAST NEW MEXICO...

CITY           SKY/WX    TMP DP  RH WIND       PRES   REMARKS
ALPINE         CLOUDY    26  -6  24 CALM      30.50S
ANDREWS        MOCLDY    20  -1  40 SW5       30.53S WCI  13
ARTESIA        CLEAR     12  -6  44 CALM      30.48F
BIG SPRING     CLOUDY    16  -3  43 SE6       30.60S WCI   7
CARLSBAD       PTCLDY    20   0  41 S9        30.49F WCI   9
DRYDEN           N/A     47  -2  13 E6        30.56F
FORT STOCKTON  CLOUDY    28  -4  25 E10       30.53F WCI  19
GUAD PASS      CLOUDY    23   0  36 CALM      30.41R
HOBBS          CLOUDY    16  -2  45 SW3       30.49F
LAMESA         CLOUDY    12  -6  44 S3        30.54F
MARFA          CLOUDY    26  -6  24 SE3       30.44F
MIDLAND AIRPK    N/A     28   1  32 SW3       30.56F
MIDLAND INTL   CLOUDY    28  -1  28 SW7       30.55S WCI  21
ODESSA         CLOUDY    26  -2  29 SW7       30.54F WCI  18
PECOS          CLOUDY    30   0  28 E8        30.54F WCI  22
PRESIDIO       CLOUDY    32  -4  21 NE6       30.53F WCI  26
SEMINOLE       CLOUDY    15  -1  47 W7        30.52F WCI   6
SNYDER         CLOUDY    14  -5  42 CALM      30.60F
WINK           CLOUDY    28  -1  28 SE7       30.54F WCI  21
$$
...OTHER STATIONS IN TEXAS...

CITY           SKY/WX    TMP DP  RH WIND       PRES   REMARKS
ABILENE        CLEAR      8   2  76 SW6       30.65S WCI  -2
AMARILLO       CLOUDY    11  -2  56 S13       30.43F WCI  -4
AUSTIN         CLOUDY    19   8  62 N12       30.75S WCI   7
BROWNSVILLE    NOT AVBL
CORPUS CHRISTI CLOUDY    30  13  49 N18       30.69F WCI  18
DALLAS FTW     CLOUDY    15   4  61 N7        30.73F WCI   5
DEL RIO        CLOUDY    33   1  25 NE5       30.66F WCI  29
EL PASO        PTCLDY    25   5  42 CALM      30.43F
HOUSTON INT    CLOUDY    20  11  68 NW6       30.73R WCI  12
LUBBOCK        CLOUDY    13  -6  42 SW6       30.50F WCI   4
SAN ANGELO     CLOUDY    11   0  61 SW3       30.64S
SAN ANTONIO    CLOUDY    27   3  35 N13       30.70F WCI  16
WACO           CLOUDY    11   5  77 NW5       30.76S WCI   3
WICHITA FALLS  CLOUDY     3  -2  79 SW6       30.64F WCI  -8
$$
...OTHER LOCATIONS IN NEW MEXICO...

CITY           SKY/WX    TMP DP  RH WIND       PRES   REMARKS
ALAMOGORDO     CLEAR     18   0  45 N6        30.46S WCI   9
ALBUQUERQUE    CLEAR     20  13  74 CALM      30.39S
CANNON AFB     PTCLDY    15   1  52 W9        30.42F WCI   4
CLOVIS         PTCLDY     5  -1  76 W7        30.42F WCI  -7
HOLLOMAN AFB   CLEAR     13  -4  46 N5        30.48F WCI   5
ROSWELL        CLEAR     10  -1  61 S5        30.45F WCI   2
RUIDOSO        CLEAR     18   9  68 W7        30.34F WCI   8
SANTA FE       CLEAR     15  11  83 N10       30.34F WCI   2
TRUTH OR CONSE CLEAR     23   8  52 W6        30.39F WCI  16
TUCUMCARI      CLEAR     17   4  56 SW9       30.36F WCI   6
$$



USA.gov is the U.S. government's official web portal to all federal, state and local government web resources and services.